Weather History for Squamish, BC

Change the Weather History Date:

Tuesday, September 11, 2012

  Actual Average Record
Temperature  
Mean Temperature 51 °F -  
Max Temperature 64 °F - - ()
Min Temperature 38 °F - - ()
Degree Days  
Heating Degree Days 14    
Growing Degree Days 1 (Base 50)    
Moisture  
Dew Point 41 °F    
Average Humidity 77    
Maximum Humidity 100    
Minimum Humidity 27    
Precipitation  
Precipitation 0.00 in - - ()
Sea Level Pressure  
Sea Level Pressure 30.28 in    
Wind  
Wind Speed 2 mph ()    
Max Wind Speed 7 mph    
Max Gust Speed -    
T = Trace of Precipitation, MM = Missing Value Source: Averaged Metar Reports

Daily Weather History Graph

Daily Weather History Graph

Search for Another Location

Airport:

Trip Planner

Search our weather history database for the weather conditions in past years. The results will help you decide how hot, cold, wet, or windy it might be!

Date:

Astronomy

Sep. 11, 2012 Rise Set
Actual Time 6:43 AM PDT 7:33 PM PDT
Civil Twilight 6:11 AM PDT 8:05 PM PDT
Nautical Twilight 5:31 AM PDT 8:44 PM PDT
Astronomical Twilight 4:50 AM PDT 9:25 PM PDT
Moon 1:45 AM PDT (9/11) 5:05 PM PDT (9/11)
Length of Visible Light 13h 54m
Length of Day
12h 49m
Waning Crescent, 20% of the Moon is Illuminated
Sep 11
Waning Crescent
Sep 15
New
Sep 22
First Quarter
Sep 29
Full
Oct 8
Last Quarter

Hourly Weather History & Observations

Time (PDT) Temp. Dew Point Humidity Pressure Visibility Wind Dir Wind Speed Gust Speed Precip Events Conditions
12:00 AM 44.8 °F 44.8 °F 100% 30.20 in - ENE 2.3 mph - N/A   Unknown
1:00 AM 43.2 °F 43.2 °F 100% 30.21 in - ENE 1.2 mph - N/A   Unknown
2:00 AM 42 °F 42 °F 100% 30.23 in - NNE 1.2 mph - -  
2:00 AM 42.4 °F 42.4 °F 100% 30.23 in - NNE 1.2 mph - N/A   Unknown
3:00 AM 42.8 °F 42.8 °F 100% 30.24 in - NE 1.2 mph - N/A   Unknown
4:00 AM 41.0 °F 41.0 °F 100% 30.25 in - ENE 1.2 mph - N/A   Unknown
5:00 AM 41 °F 41 °F 98% 30.26 in - NNE 1.2 mph - -  
5:00 AM 40.6 °F 40.6 °F 100% 30.26 in - NNE 1.2 mph - N/A   Unknown
6:00 AM 39.7 °F 39.7 °F 100% 30.27 in - Calm Calm - N/A   Unknown
7:00 AM 39.0 °F 39.0 °F 100% 30.30 in - NE 2.3 mph - N/A   Unknown
8:00 AM 42 °F 42 °F 100% 30.31 in - North 2.3 mph - -  
8:00 AM 42.3 °F 42.3 °F 100% 30.31 in - North 2.3 mph - N/A   Unknown
9:00 AM 46.2 °F 42.6 °F 87% 30.31 in - West 2.3 mph - N/A   Unknown
10:00 AM 50.7 °F 42.6 °F 74% 30.32 in - North 2.3 mph - N/A   Unknown
11:00 AM 56 °F 43 °F 50% 30.32 in - SSW 1.2 mph - -  
11:00 AM 56.1 °F 42.6 °F 61% 30.32 in - SSW 1.2 mph - N/A   Unknown
12:00 PM 58.8 °F 44.1 °F 58% 30.31 in - South 6.9 mph - N/A   Unknown
1:00 PM 60.1 °F 40.8 °F 49% 30.30 in - South 6.9 mph - N/A   Unknown
2:00 PM 64 °F 38 °F 27% 30.28 in - SSE 6.9 mph - -  
2:00 PM 63.7 °F 38.3 °F 39% 30.28 in - SSE 6.9 mph - N/A   Unknown
4:00 PM 60.8 °F 37.0 °F 41% 30.26 in - ESE 6.9 mph - N/A   Unknown
5:00 PM 60 °F 38 °F 32% 30.27 in - SE 5.8 mph - -  
5:00 PM 60.3 °F 37.8 °F 43% 30.27 in - SE 5.8 mph - N/A   Unknown
6:00 PM 57.6 °F 39.7 °F 51% 30.27 in - SSE 2.3 mph - N/A   Unknown
7:00 PM 51.8 °F 43.3 °F 73% 30.28 in - East 1.2 mph - N/A   Unknown
8:00 PM 47 °F 43 °F 79% 30.30 in - NE 2.3 mph - -  
8:00 PM 47.5 °F 42.6 °F 83% 30.30 in - NE 2.3 mph - N/A   Unknown
10:00 PM 44.1 °F 42.3 °F 93% 30.33 in - NW 1.2 mph - N/A   Unknown
11:00 PM 45 °F 42 °F 87% 30.34 in - NNE 1.2 mph - -  
11:00 PM 45.0 °F 42.4 °F 91% 30.34 in - NNE 1.2 mph - N/A   Unknown